Year,Month,Day,Hour,Minute,Value (Times are PST for temperature in C)
2017,05,23,00,00,16.30
2017,05,23,00,01,16.30
2017,05,23,00,02,16.30
2017,05,23,00,03,16.30
2017,05,23,00,04,16.30
2017,05,23,00,05,16.30
2017,05,23,00,06,16.20
2017,05,23,00,07,16.20
2017,05,23,00,08,16.20
2017,05,23,00,09,16.10
2017,05,23,00,10,16.10
2017,05,23,00,11,16.10
2017,05,23,00,12,16.00
2017,05,23,00,13,16.00
2017,05,23,00,14,15.90
2017,05,23,00,15,15.90
2017,05,23,00,16,15.90
2017,05,23,00,17,15.80
2017,05,23,00,18,15.80
2017,05,23,00,19,15.80
2017,05,23,00,20,15.80
2017,05,23,00,21,15.70
2017,05,23,00,22,15.70
2017,05,23,00,23,15.60
2017,05,23,00,24,15.60
2017,05,23,00,25,15.60
2017,05,23,00,26,15.60
2017,05,23,00,27,15.50
2017,05,23,00,28,15.50
2017,05,23,00,29,15.40
2017,05,23,00,30,15.40
2017,05,23,00,31,15.40
2017,05,23,00,32,15.30
2017,05,23,00,33,15.30
2017,05,23,00,34,15.30
2017,05,23,00,35,15.30
2017,05,23,00,36,15.30
2017,05,23,00,37,15.20
2017,05,23,00,38,15.30
2017,05,23,00,39,15.30
2017,05,23,00,40,15.30
2017,05,23,00,41,15.30
2017,05,23,00,42,15.30
2017,05,23,00,43,15.30
2017,05,23,00,44,15.30
2017,05,23,00,45,15.30
2017,05,23,00,46,15.30
2017,05,23,00,47,15.30
2017,05,23,00,48,15.40
2017,05,23,00,49,15.30
2017,05,23,00,50,15.30
2017,05,23,00,51,15.30
2017,05,23,00,52,15.30
2017,05,23,00,53,15.30
2017,05,23,00,54,15.20
2017,05,23,00,55,15.20
2017,05,23,00,56,15.20
2017,05,23,00,57,15.10
2017,05,23,00,58,15.10
2017,05,23,00,59,15.10
2017,05,23,01,00,15.00
2017,05,23,01,01,15.00
2017,05,23,01,02,15.00
2017,05,23,01,03,15.00
2017,05,23,01,04,15.00
2017,05,23,01,05,14.90
2017,05,23,01,06,14.90
2017,05,23,01,07,14.90
2017,05,23,01,08,14.90
2017,05,23,01,09,14.90
2017,05,23,01,10,14.90
2017,05,23,01,11,14.80
2017,05,23,01,12,14.80
2017,05,23,01,13,14.80
2017,05,23,01,14,14.80
2017,05,23,01,15,14.70
2017,05,23,01,16,14.70
2017,05,23,01,17,14.70
2017,05,23,01,18,14.70
2017,05,23,01,19,14.70
2017,05,23,01,20,14.70
2017,05,23,01,21,14.70
2017,05,23,01,22,14.70
2017,05,23,01,23,14.80
2017,05,23,01,24,14.80
2017,05,23,01,25,14.80
2017,05,23,01,26,14.70
2017,05,23,01,27,14.70
2017,05,23,01,28,14.70
2017,05,23,01,29,14.70
2017,05,23,01,30,14.70
2017,05,23,01,31,14.70
2017,05,23,01,32,14.70
2017,05,23,01,33,14.70
2017,05,23,01,34,14.60
2017,05,23,01,35,14.60
2017,05,23,01,36,14.60
2017,05,23,01,37,14.60
2017,05,23,01,38,14.60
2017,05,23,01,39,14.60
2017,05,23,01,40,14.60
2017,05,23,01,41,14.60
2017,05,23,01,42,14.60
2017,05,23,01,43,14.70
2017,05,23,01,44,14.70
2017,05,23,01,45,14.80
2017,05,23,01,46,14.80
2017,05,23,01,47,14.90
2017,05,23,01,48,14.90
2017,05,23,01,49,14.90
2017,05,23,01,50,15.00
2017,05,23,01,51,15.00
2017,05,23,01,52,15.00
2017,05,23,01,53,15.00
2017,05,23,01,54,15.00
2017,05,23,01,55,15.00
2017,05,23,01,56,15.00
2017,05,23,01,57,15.00
2017,05,23,01,58,14.90
2017,05,23,01,59,14.90
2017,05,23,02,00,14.90
2017,05,23,02,01,14.90
2017,05,23,02,02,14.90
2017,05,23,02,03,14.90
2017,05,23,02,04,14.90
2017,05,23,02,05,14.90
2017,05,23,02,06,14.90
2017,05,23,02,07,14.90
2017,05,23,02,08,14.90
2017,05,23,02,09,14.90
2017,05,23,02,10,14.80
2017,05,23,02,11,14.80
2017,05,23,02,12,14.80
2017,05,23,02,13,14.80
2017,05,23,02,14,14.80
2017,05,23,02,15,14.80
2017,05,23,02,16,14.80
2017,05,23,02,17,14.80
2017,05,23,02,18,14.80
2017,05,23,02,19,14.80
2017,05,23,02,20,14.80
2017,05,23,02,21,14.70
2017,05,23,02,22,14.70
2017,05,23,02,23,14.70
2017,05,23,02,24,14.70
2017,05,23,02,25,14.70
2017,05,23,02,26,14.70
2017,05,23,02,27,14.70
2017,05,23,02,28,14.70
2017,05,23,02,29,14.70
2017,05,23,02,30,14.70
2017,05,23,02,31,14.80
2017,05,23,02,32,14.80
2017,05,23,02,33,14.90
2017,05,23,02,34,14.90
2017,05,23,02,35,14.90
2017,05,23,02,36,14.90
2017,05,23,02,37,14.90
2017,05,23,02,38,14.90
2017,05,23,02,39,14.90
2017,05,23,02,40,14.80
2017,05,23,02,41,14.80
2017,05,23,02,42,14.80
2017,05,23,02,43,14.70
2017,05,23,02,44,14.70
2017,05,23,02,45,14.70
2017,05,23,02,46,14.70
2017,05,23,02,47,14.70
2017,05,23,02,48,14.70
2017,05,23,02,49,14.60
2017,05,23,02,50,14.60
2017,05,23,02,51,14.60
2017,05,23,02,52,14.60
2017,05,23,02,53,14.60
2017,05,23,02,54,14.60
2017,05,23,02,55,14.60
2017,05,23,02,56,14.60
2017,05,23,02,57,14.60
2017,05,23,02,58,14.50
2017,05,23,02,59,14.50
2017,05,23,03,00,14.50
2017,05,23,03,01,14.50
2017,05,23,03,02,14.50
2017,05,23,03,03,14.50
2017,05,23,03,04,14.50
2017,05,23,03,05,14.40
2017,05,23,03,06,14.40
2017,05,23,03,07,14.40
2017,05,23,03,08,14.40
2017,05,23,03,09,14.40
2017,05,23,03,10,14.40
2017,05,23,03,11,14.40
2017,05,23,03,12,14.40
2017,05,23,03,13,14.40
2017,05,23,03,14,14.40
2017,05,23,03,15,14.40
2017,05,23,03,16,14.40
2017,05,23,03,17,14.40
2017,05,23,03,18,14.40
2017,05,23,03,19,14.50
2017,05,23,03,20,14.40
2017,05,23,03,21,14.40
2017,05,23,03,22,14.50
2017,05,23,03,23,14.50
2017,05,23,03,24,14.50
2017,05,23,03,25,14.60
2017,05,23,03,26,14.50
2017,05,23,03,27,14.50
2017,05,23,03,28,14.40
2017,05,23,03,29,14.40
2017,05,23,03,30,14.30
2017,05,23,03,31,14.30
2017,05,23,03,32,14.30
2017,05,23,03,33,14.20
2017,05,23,03,34,14.20
2017,05,23,03,35,14.20
2017,05,23,03,36,14.20
2017,05,23,03,37,14.20
2017,05,23,03,38,14.20
2017,05,23,03,39,14.20
2017,05,23,03,40,14.20
2017,05,23,03,41,14.20
2017,05,23,03,42,14.20
2017,05,23,03,43,14.20
2017,05,23,03,44,14.20
2017,05,23,03,45,14.10
2017,05,23,03,46,14.10
2017,05,23,03,47,14.10
2017,05,23,03,48,14.10
2017,05,23,03,49,14.00
2017,05,23,03,50,14.00
2017,05,23,03,51,14.00
2017,05,23,03,52,13.90
2017,05,23,03,53,13.90
2017,05,23,03,54,13.90
2017,05,23,03,55,13.90
2017,05,23,03,56,13.90
2017,05,23,03,57,13.90
2017,05,23,03,58,13.90
2017,05,23,03,59,13.90
2017,05,23,04,00,13.90
2017,05,23,04,01,13.90
2017,05,23,04,02,13.80
2017,05,23,04,03,13.80
2017,05,23,04,04,13.80
2017,05,23,04,05,13.80
2017,05,23,04,06,13.80
2017,05,23,04,07,13.80
2017,05,23,04,08,13.80
2017,05,23,04,09,13.80
2017,05,23,04,10,13.80
2017,05,23,04,11,13.70
2017,05,23,04,12,13.70
2017,05,23,04,13,13.70
2017,05,23,04,14,13.70
2017,05,23,04,15,13.70
2017,05,23,04,16,13.60
2017,05,23,04,17,13.60
2017,05,23,04,18,13.60
2017,05,23,04,19,13.60
2017,05,23,04,20,13.60
2017,05,23,04,21,13.60
2017,05,23,04,22,13.50
2017,05,23,04,23,13.50
2017,05,23,04,24,13.50
2017,05,23,04,25,13.50
2017,05,23,04,26,13.40
2017,05,23,04,27,13.40
2017,05,23,04,28,13.40
2017,05,23,04,29,13.40
2017,05,23,04,30,13.40
2017,05,23,04,31,13.40
2017,05,23,04,32,13.40
2017,05,23,04,33,13.40
2017,05,23,04,34,13.30
2017,05,23,04,35,13.30
2017,05,23,04,36,13.30
2017,05,23,04,37,13.30
2017,05,23,04,38,13.30
2017,05,23,04,39,13.30
2017,05,23,04,40,13.20
2017,05,23,04,41,13.20
2017,05,23,04,42,13.20
2017,05,23,04,43,13.20
2017,05,23,04,44,13.20
2017,05,23,04,45,13.20
2017,05,23,04,46,13.20
2017,05,23,04,47,13.20
2017,05,23,04,48,13.20
2017,05,23,04,49,13.10
2017,05,23,04,50,13.10
2017,05,23,04,51,13.10
2017,05,23,04,52,13.10
2017,05,23,04,53,13.10
2017,05,23,04,54,13.10
2017,05,23,04,55,13.10
2017,05,23,04,56,13.10
2017,05,23,04,57,13.10
2017,05,23,04,58,13.00
2017,05,23,04,59,13.00
2017,05,23,05,00,13.00
2017,05,23,05,01,13.00
2017,05,23,05,02,13.00
2017,05,23,05,03,13.00
2017,05,23,05,04,13.00
2017,05,23,05,05,13.00
2017,05,23,05,06,13.00
2017,05,23,05,07,12.90
2017,05,23,05,08,12.90
2017,05,23,05,09,12.90
2017,05,23,05,10,12.80
2017,05,23,05,11,12.80
2017,05,23,05,12,12.80
2017,05,23,05,13,12.80
2017,05,23,05,14,12.80
2017,05,23,05,15,12.80
2017,05,23,05,16,12.80
2017,05,23,05,17,12.70
2017,05,23,05,18,12.70
2017,05,23,05,19,12.70
2017,05,23,05,20,12.70
2017,05,23,05,21,12.70
2017,05,23,05,22,12.70
2017,05,23,05,23,12.60
2017,05,23,05,24,12.60
2017,05,23,05,25,12.60
2017,05,23,05,26,12.60
2017,05,23,05,27,12.60
2017,05,23,05,28,12.60
2017,05,23,05,29,12.60
2017,05,23,05,30,12.60
2017,05,23,05,31,12.60
2017,05,23,05,32,12.60
2017,05,23,05,33,12.50
2017,05,23,05,34,12.50
2017,05,23,05,35,12.50
2017,05,23,05,36,12.50
2017,05,23,05,37,12.50
2017,05,23,05,38,12.50
2017,05,23,05,39,12.50
2017,05,23,05,40,12.50
2017,05,23,05,41,12.50
2017,05,23,05,42,12.50
2017,05,23,05,43,12.50
2017,05,23,05,44,12.50
2017,05,23,05,45,12.50
2017,05,23,05,46,12.50
2017,05,23,05,47,12.50
2017,05,23,05,48,12.40
2017,05,23,05,49,12.40
2017,05,23,05,50,12.40
2017,05,23,05,51,12.40
2017,05,23,05,52,12.40
2017,05,23,05,53,12.40
2017,05,23,05,54,12.40
2017,05,23,05,55,12.40
2017,05,23,05,56,12.40
2017,05,23,05,57,12.40
2017,05,23,05,58,12.30
2017,05,23,05,59,12.30
2017,05,23,06,00,12.30
2017,05,23,06,01,12.30
2017,05,23,06,02,12.30
2017,05,23,06,03,12.30
2017,05,23,06,04,12.30
2017,05,23,06,05,12.30
2017,05,23,06,06,12.30
2017,05,23,06,07,12.30
2017,05,23,06,08,12.30
2017,05,23,06,09,12.30
2017,05,23,06,10,12.30
2017,05,23,06,11,12.30
2017,05,23,06,12,12.30
2017,05,23,06,13,12.40
2017,05,23,06,14,12.40
2017,05,23,06,15,12.40
2017,05,23,06,16,12.40
2017,05,23,06,17,12.50
2017,05,23,06,18,12.50
2017,05,23,06,19,12.50
2017,05,23,06,20,12.50
2017,05,23,06,21,12.60
2017,05,23,06,22,12.60
2017,05,23,06,23,12.60
2017,05,23,06,24,12.60
2017,05,23,06,25,12.60
2017,05,23,06,26,12.70
2017,05,23,06,27,12.70
2017,05,23,06,28,12.70
2017,05,23,06,29,12.70
2017,05,23,06,30,12.70
2017,05,23,06,31,12.70
2017,05,23,06,32,12.80
2017,05,23,06,33,12.80
2017,05,23,06,34,12.80
2017,05,23,06,35,12.90
2017,05,23,06,36,12.90
2017,05,23,06,37,12.90
2017,05,23,06,38,12.90
2017,05,23,06,39,13.00
2017,05,23,06,40,13.10
2017,05,23,06,41,13.10
2017,05,23,06,42,13.10
2017,05,23,06,43,13.20
2017,05,23,06,44,13.20
2017,05,23,06,45,13.20
2017,05,23,06,46,13.30
2017,05,23,06,47,13.30
2017,05,23,06,48,13.40
2017,05,23,06,49,13.40
2017,05,23,06,50,13.50
2017,05,23,06,51,13.50
2017,05,23,06,52,13.60
2017,05,23,06,53,13.60
2017,05,23,06,54,13.60
2017,05,23,06,55,13.60
2017,05,23,06,56,13.70
2017,05,23,06,57,13.70
2017,05,23,06,58,13.80
2017,05,23,06,59,13.80
2017,05,23,07,00,13.80
2017,05,23,07,01,13.90
2017,05,23,07,02,13.90
2017,05,23,07,03,13.90
2017,05,23,07,04,14.00
2017,05,23,07,05,14.00
2017,05,23,07,06,14.10
2017,05,23,07,07,14.10
2017,05,23,07,08,14.10
2017,05,23,07,09,14.20
2017,05,23,07,10,14.20
2017,05,23,07,11,14.30
2017,05,23,07,12,14.30
2017,05,23,07,13,14.40
2017,05,23,07,14,14.40
2017,05,23,07,15,14.50
2017,05,23,07,16,14.60
2017,05,23,07,17,14.70
2017,05,23,07,18,14.80
2017,05,23,07,19,14.90
2017,05,23,07,20,15.00
2017,05,23,07,21,15.00
2017,05,23,07,22,15.00
2017,05,23,07,23,15.10
2017,05,23,07,24,15.10
2017,05,23,07,25,15.20
2017,05,23,07,26,15.20
2017,05,23,07,27,15.20
2017,05,23,07,28,15.20
2017,05,23,07,29,15.20
2017,05,23,07,30,15.30
2017,05,23,07,31,15.30
2017,05,23,07,32,15.30
2017,05,23,07,33,15.30
2017,05,23,07,34,15.30
2017,05,23,07,35,15.30
2017,05,23,07,36,15.30
2017,05,23,07,37,15.30
2017,05,23,07,38,15.30
2017,05,23,07,39,15.30
2017,05,23,07,40,15.30
2017,05,23,07,41,15.30
2017,05,23,07,42,15.30
2017,05,23,07,43,15.30
2017,05,23,07,44,15.40
2017,05,23,07,45,15.50
2017,05,23,07,46,15.50
2017,05,23,07,47,15.60
2017,05,23,07,48,15.70
2017,05,23,07,49,15.70
2017,05,23,07,50,15.70
2017,05,23,07,51,15.70
2017,05,23,07,52,15.70
2017,05,23,07,53,15.70
2017,05,23,07,54,15.80
2017,05,23,07,55,15.80
2017,05,23,07,56,15.70
2017,05,23,07,57,15.80
2017,05,23,07,58,15.80
2017,05,23,07,59,15.80
2017,05,23,08,00,15.80
2017,05,23,08,01,15.90
2017,05,23,08,02,15.90
2017,05,23,08,03,15.90
2017,05,23,08,04,15.90
2017,05,23,08,05,15.90
2017,05,23,08,06,15.90
2017,05,23,08,07,16.00
2017,05,23,08,08,16.00
2017,05,23,08,09,16.00
2017,05,23,08,10,16.10
2017,05,23,08,11,16.10
2017,05,23,08,12,16.20
2017,05,23,08,13,16.20
2017,05,23,08,14,16.20
2017,05,23,08,15,16.20
2017,05,23,08,16,16.30
2017,05,23,08,17,16.30
2017,05,23,08,18,16.30
2017,05,23,08,19,16.40
2017,05,23,08,20,16.40
2017,05,23,08,21,16.50
2017,05,23,08,22,16.60
2017,05,23,08,23,16.50
2017,05,23,08,24,16.50
2017,05,23,08,25,16.50
2017,05,23,08,26,16.50
2017,05,23,08,27,16.50
2017,05,23,08,28,16.50
2017,05,23,08,29,16.50
2017,05,23,08,30,16.50
2017,05,23,08,31,16.50
2017,05,23,08,32,16.50
2017,05,23,08,33,16.60
2017,05,23,08,34,16.60
2017,05,23,08,35,16.60
2017,05,23,08,36,16.70
2017,05,23,08,37,16.70
2017,05,23,08,38,16.70
2017,05,23,08,39,16.70
2017,05,23,08,40,16.80
2017,05,23,08,41,16.80
2017,05,23,08,42,16.90
2017,05,23,08,43,16.90
2017,05,23,08,44,16.90
2017,05,23,08,45,17.00
2017,05,23,08,46,17.00
2017,05,23,08,47,17.00
2017,05,23,08,48,17.10
2017,05,23,08,49,17.10
2017,05,23,08,50,17.20
2017,05,23,08,51,17.20
2017,05,23,08,52,17.20
2017,05,23,08,53,17.20
2017,05,23,08,54,17.20
2017,05,23,08,55,17.30
2017,05,23,08,56,17.30
2017,05,23,08,57,17.40
2017,05,23,08,58,17.40
2017,05,23,08,59,17.50
2017,05,23,09,00,17.50
2017,05,23,09,01,17.50
2017,05,23,09,02,17.50
2017,05,23,09,03,17.50
2017,05,23,09,04,17.60
2017,05,23,09,05,17.60
2017,05,23,09,06,17.70
2017,05,23,09,07,17.80
2017,05,23,09,08,17.90
2017,05,23,09,09,18.00
2017,05,23,09,10,18.10
2017,05,23,09,11,18.20
2017,05,23,09,12,18.30
2017,05,23,09,13,18.40
2017,05,23,09,14,18.50
2017,05,23,09,15,18.50
2017,05,23,09,16,18.60
2017,05,23,09,17,18.60
2017,05,23,09,18,18.70
2017,05,23,09,19,18.70
2017,05,23,09,20,18.70
2017,05,23,09,21,18.70
2017,05,23,09,22,18.70
2017,05,23,09,23,18.80
2017,05,23,09,24,18.80
2017,05,23,09,25,18.80
2017,05,23,09,26,18.80
2017,05,23,09,27,18.70
2017,05,23,09,28,18.70
2017,05,23,09,29,18.70
2017,05,23,09,30,18.70
2017,05,23,09,31,18.70
2017,05,23,09,32,18.80
2017,05,23,09,33,18.80
2017,05,23,09,34,18.90
2017,05,23,09,35,18.90
2017,05,23,09,36,18.90
2017,05,23,09,37,18.90
2017,05,23,09,38,19.00
2017,05,23,09,39,19.00
2017,05,23,09,40,18.90
2017,05,23,09,41,18.80
2017,05,23,09,42,18.80
2017,05,23,09,43,18.80
2017,05,23,09,44,18.90
2017,05,23,09,45,18.90
2017,05,23,09,46,19.00
2017,05,23,09,47,19.10
2017,05,23,09,48,19.20
2017,05,23,09,49,19.30
2017,05,23,09,50,19.30
2017,05,23,09,51,19.40
2017,05,23,09,52,19.50
2017,05,23,09,53,19.50
2017,05,23,09,54,19.50
2017,05,23,09,55,19.60
2017,05,23,09,56,19.60
2017,05,23,09,57,19.60
2017,05,23,09,58,19.60
2017,05,23,09,59,19.70
2017,05,23,10,00,19.70
2017,05,23,10,01,19.70
2017,05,23,10,02,19.70
2017,05,23,10,03,19.70
2017,05,23,10,04,19.70
2017,05,23,10,05,19.70
2017,05,23,10,06,19.70
2017,05,23,10,07,19.70
2017,05,23,10,08,19.70
2017,05,23,10,09,19.60
2017,05,23,10,10,19.60
2017,05,23,10,11,19.60
2017,05,23,10,12,19.60
2017,05,23,10,13,19.60
2017,05,23,10,14,19.70
2017,05,23,10,15,19.70
2017,05,23,10,16,19.70
2017,05,23,10,17,19.70
2017,05,23,10,18,19.80
2017,05,23,10,19,19.80
2017,05,23,10,20,19.70
2017,05,23,10,21,19.70
2017,05,23,10,22,19.60
2017,05,23,10,23,19.60
2017,05,23,10,24,19.60
2017,05,23,10,25,19.60
2017,05,23,10,26,19.60
2017,05,23,10,27,19.70
2017,05,23,10,28,19.70
2017,05,23,10,29,19.70
2017,05,23,10,30,19.80
2017,05,23,10,31,19.80
2017,05,23,10,32,19.90
2017,05,23,10,33,19.90
2017,05,23,10,34,20.00
2017,05,23,10,35,20.10
2017,05,23,10,36,20.10
2017,05,23,10,37,20.10
2017,05,23,10,38,20.10
2017,05,23,10,39,20.10
2017,05,23,10,40,20.10
2017,05,23,10,41,20.00
2017,05,23,10,42,20.00
2017,05,23,10,43,19.90
2017,05,23,10,44,19.80
2017,05,23,10,45,19.80
2017,05,23,10,46,19.70
2017,05,23,10,47,19.70
2017,05,23,10,48,19.60
2017,05,23,10,49,19.60
2017,05,23,10,50,19.50
2017,05,23,10,51,19.40
2017,05,23,10,52,19.40
2017,05,23,10,53,19.40
2017,05,23,10,54,19.40
2017,05,23,10,55,19.50
2017,05,23,10,56,19.50
2017,05,23,10,57,19.50
2017,05,23,10,58,19.50
2017,05,23,10,59,19.60
2017,05,23,11,00,19.70
2017,05,23,11,01,19.70
2017,05,23,11,02,19.70
2017,05,23,11,03,19.70
2017,05,23,11,04,19.70
2017,05,23,11,05,19.70
2017,05,23,11,06,19.70
2017,05,23,11,07,19.70
2017,05,23,11,08,19.70
2017,05,23,11,09,19.80
2017,05,23,11,10,19.90
2017,05,23,11,11,19.90
2017,05,23,11,12,19.90
2017,05,23,11,13,19.90
2017,05,23,11,14,19.80
2017,05,23,11,15,19.80
2017,05,23,11,16,19.70
2017,05,23,11,17,19.70
2017,05,23,11,18,19.70
2017,05,23,11,19,19.70
2017,05,23,11,20,19.80
2017,05,23,11,21,19.80
2017,05,23,11,22,19.80
2017,05,23,11,23,19.80
2017,05,23,11,24,19.90
2017,05,23,11,25,19.90
2017,05,23,11,26,19.80
2017,05,23,11,27,19.80
2017,05,23,11,28,19.80
2017,05,23,11,29,19.80
2017,05,23,11,30,19.80
2017,05,23,11,31,19.80
2017,05,23,11,32,19.80
2017,05,23,11,33,19.90
2017,05,23,11,34,19.90
2017,05,23,11,35,19.90
2017,05,23,11,36,19.90
2017,05,23,11,37,19.80
2017,05,23,11,38,19.80
2017,05,23,11,39,19.80
2017,05,23,11,40,19.80
2017,05,23,11,41,19.80
2017,05,23,11,42,19.80
2017,05,23,11,43,19.80
2017,05,23,11,44,19.80
2017,05,23,11,45,19.80
2017,05,23,11,46,19.80
2017,05,23,11,47,19.80
2017,05,23,11,48,19.80
2017,05,23,11,49,19.80
2017,05,23,11,50,19.90
2017,05,23,11,51,19.90
2017,05,23,11,52,19.90
2017,05,23,11,53,20.00
2017,05,23,11,54,19.90
2017,05,23,11,55,19.90
2017,05,23,11,56,19.90
2017,05,23,11,57,19.90
2017,05,23,11,58,19.90
2017,05,23,11,59,19.90
2017,05,23,12,00,19.90
2017,05,23,12,01,19.90
2017,05,23,12,02,19.90
2017,05,23,12,03,19.90
2017,05,23,12,04,19.90
2017,05,23,12,05,19.90
2017,05,23,12,06,19.90
2017,05,23,12,07,19.90
2017,05,23,12,08,19.90
2017,05,23,12,09,20.00
2017,05,23,12,10,20.00
2017,05,23,12,11,20.10
2017,05,23,12,12,20.10
2017,05,23,12,13,20.10
2017,05,23,12,14,20.00
2017,05,23,12,15,20.00
2017,05,23,12,16,20.00
2017,05,23,12,17,20.00
2017,05,23,12,18,20.00
2017,05,23,12,19,20.00
2017,05,23,12,20,20.00
2017,05,23,12,21,20.10
2017,05,23,12,22,20.10
2017,05,23,12,23,20.20
2017,05,23,12,24,20.20
2017,05,23,12,25,20.30
2017,05,23,12,26,20.30
2017,05,23,12,27,20.30
2017,05,23,12,28,20.40
2017,05,23,12,29,20.40
2017,05,23,12,30,20.40
2017,05,23,12,31,20.40
2017,05,23,12,32,20.40
2017,05,23,12,33,20.40
2017,05,23,12,34,20.50
2017,05,23,12,35,20.50
2017,05,23,12,36,20.50
2017,05,23,12,37,20.50
2017,05,23,12,38,20.60
2017,05,23,12,39,20.60
2017,05,23,12,40,20.70
2017,05,23,12,41,20.70
2017,05,23,12,42,20.70
2017,05,23,12,43,20.70
2017,05,23,12,44,20.80
2017,05,23,12,45,20.80
2017,05,23,12,46,20.80
2017,05,23,12,47,20.80
2017,05,23,12,48,20.80
2017,05,23,12,49,20.80
2017,05,23,12,50,20.70
2017,05,23,12,51,20.70
2017,05,23,12,52,20.70
2017,05,23,12,53,20.80
2017,05,23,12,54,20.90
2017,05,23,12,55,20.90
2017,05,23,12,56,21.00
2017,05,23,12,57,21.10
2017,05,23,12,58,21.20
2017,05,23,12,59,21.30
2017,05,23,13,00,21.30
2017,05,23,13,01,21.30
2017,05,23,13,02,21.40
2017,05,23,13,03,21.40
2017,05,23,13,04,21.40
2017,05,23,13,05,21.30
2017,05,23,13,06,21.20
2017,05,23,13,07,21.10
2017,05,23,13,08,21.00
2017,05,23,13,09,20.90
2017,05,23,13,10,20.80
2017,05,23,13,11,20.80
2017,05,23,13,12,20.80
2017,05,23,13,13,20.80
2017,05,23,13,14,20.90
2017,05,23,13,15,20.90
2017,05,23,13,16,20.90
2017,05,23,13,17,20.90
2017,05,23,13,18,21.00
2017,05,23,13,19,21.00
2017,05,23,13,20,21.00
2017,05,23,13,21,20.90
2017,05,23,13,22,20.90
2017,05,23,13,23,20.80
2017,05,23,13,24,20.80
2017,05,23,13,25,20.80
2017,05,23,13,26,20.80
2017,05,23,13,27,20.70
2017,05,23,13,28,20.70
2017,05,23,13,29,20.60
2017,05,23,13,30,20.60
2017,05,23,13,31,20.60
2017,05,23,13,32,20.60
2017,05,23,13,33,20.60
2017,05,23,13,34,20.60
2017,05,23,13,35,20.60
2017,05,23,13,36,20.70
2017,05,23,13,37,20.70
2017,05,23,13,38,20.80
2017,05,23,13,39,20.80
2017,05,23,13,40,20.80
2017,05,23,13,41,20.80
2017,05,23,13,42,20.90
2017,05,23,13,43,20.90
2017,05,23,13,44,21.00
2017,05,23,13,45,21.00
2017,05,23,13,46,21.10
2017,05,23,13,47,21.10
2017,05,23,13,48,21.10
2017,05,23,13,49,21.10
2017,05,23,13,50,21.20
2017,05,23,13,51,21.20
2017,05,23,13,52,21.20
2017,05,23,13,53,21.20
2017,05,23,13,54,21.30
2017,05,23,13,55,21.20
2017,05,23,13,56,21.20
2017,05,23,13,57,21.20
2017,05,23,13,58,21.20
2017,05,23,13,59,21.20
2017,05,23,14,00,21.30
2017,05,23,14,01,21.50
2017,05,23,14,02,21.60
2017,05,23,14,03,21.60
2017,05,23,14,04,21.70
2017,05,23,14,05,21.90
2017,05,23,14,06,22.00
2017,05,23,14,07,22.20
2017,05,23,14,08,22.30
2017,05,23,14,09,22.40
2017,05,23,14,10,22.50
2017,05,23,14,11,22.60
2017,05,23,14,12,22.70
2017,05,23,14,13,22.70
2017,05,23,14,14,22.80
2017,05,23,14,15,22.90
2017,05,23,14,16,23.00
2017,05,23,14,17,23.10
2017,05,23,14,18,23.10
2017,05,23,14,19,23.10
2017,05,23,14,20,23.10
2017,05,23,14,21,23.10
2017,05,23,14,22,23.10
2017,05,23,14,23,23.10
2017,05,23,14,24,23.00
2017,05,23,14,25,23.00
2017,05,23,14,26,22.90
2017,05,23,14,27,22.90
2017,05,23,14,28,22.80
2017,05,23,14,29,22.80
2017,05,23,14,30,22.70
2017,05,23,14,31,22.70
2017,05,23,14,32,22.80
2017,05,23,14,33,22.80
2017,05,23,14,34,22.80
2017,05,23,14,35,22.90
2017,05,23,14,36,22.90
2017,05,23,14,37,22.80
2017,05,23,14,38,22.70
2017,05,23,14,39,22.70
2017,05,23,14,40,22.70
2017,05,23,14,41,22.70
2017,05,23,14,42,22.70
2017,05,23,14,43,22.70
2017,05,23,14,44,22.60
2017,05,23,14,45,22.50
2017,05,23,14,46,22.50
2017,05,23,14,47,22.50
2017,05,23,14,48,22.50
2017,05,23,14,49,22.60
2017,05,23,14,50,22.60
2017,05,23,14,51,22.60
2017,05,23,14,52,22.50
2017,05,23,14,53,22.50
2017,05,23,14,54,22.40
2017,05,23,14,55,22.40
2017,05,23,14,56,22.30
2017,05,23,14,57,22.20
2017,05,23,14,58,22.20
2017,05,23,14,59,22.10
2017,05,23,15,00,22.10
2017,05,23,15,01,22.10
2017,05,23,15,02,22.10
2017,05,23,15,03,22.10
2017,05,23,15,04,22.20
2017,05,23,15,05,22.10
2017,05,23,15,06,22.00
2017,05,23,15,07,22.00
2017,05,23,15,08,21.90
2017,05,23,15,09,21.90
2017,05,23,15,10,21.90
2017,05,23,15,11,21.90
2017,05,23,15,12,21.80
2017,05,23,15,13,21.80
2017,05,23,15,14,21.80
2017,05,23,15,15,21.80
2017,05,23,15,16,21.80
2017,05,23,15,17,21.80
2017,05,23,15,18,21.80
2017,05,23,15,19,21.70
2017,05,23,15,20,21.80
2017,05,23,15,21,21.80
2017,05,23,15,22,21.80
2017,05,23,15,23,21.70
2017,05,23,15,24,21.60
2017,05,23,15,25,21.50
2017,05,23,15,26,21.40
2017,05,23,15,27,21.40
2017,05,23,15,28,21.30
2017,05,23,15,29,21.30
2017,05,23,15,30,21.30
2017,05,23,15,31,21.30
2017,05,23,15,32,21.20
2017,05,23,15,33,21.20
2017,05,23,15,34,21.20
2017,05,23,15,35,21.30
2017,05,23,15,36,21.30
2017,05,23,15,37,21.40
2017,05,23,15,38,21.40
2017,05,23,15,39,21.30
2017,05,23,15,40,21.20
2017,05,23,15,41,21.20
2017,05,23,15,42,21.20
2017,05,23,15,43,21.20
2017,05,23,15,44,21.20
2017,05,23,15,45,21.20
2017,05,23,15,46,21.20
2017,05,23,15,47,21.20
2017,05,23,15,48,21.20
2017,05,23,15,49,21.10
2017,05,23,15,50,21.10
2017,05,23,15,51,21.00
2017,05,23,15,52,20.90
2017,05,23,15,53,20.90
2017,05,23,15,54,20.80
2017,05,23,15,55,20.80
2017,05,23,15,56,20.80
2017,05,23,15,57,20.80
2017,05,23,15,58,20.90
2017,05,23,15,59,20.80
2017,05,23,16,00,20.70
2017,05,23,16,01,20.70
2017,05,23,16,02,20.70
2017,05,23,16,03,20.70
2017,05,23,16,04,20.70
2017,05,23,16,05,20.70
2017,05,23,16,06,20.60
2017,05,23,16,07,20.60
2017,05,23,16,08,20.60
2017,05,23,16,09,20.60
2017,05,23,16,10,20.60
2017,05,23,16,11,20.50
2017,05,23,16,12,20.60
2017,05,23,16,13,20.60
2017,05,23,16,14,20.60
2017,05,23,16,15,20.60
2017,05,23,16,16,20.50
2017,05,23,16,17,20.40
2017,05,23,16,18,20.30
2017,05,23,16,19,20.30
2017,05,23,16,20,20.30
2017,05,23,16,21,20.40
2017,05,23,16,22,20.30
2017,05,23,16,23,20.30
2017,05,23,16,24,20.40
2017,05,23,16,25,20.50
2017,05,23,16,26,20.50
2017,05,23,16,27,20.30
2017,05,23,16,28,19.80
2017,05,23,16,29,18.90
2017,05,23,16,30,18.10
2017,05,23,16,31,17.60
2017,05,23,16,32,17.30
2017,05,23,16,33,17.10
2017,05,23,16,34,17.10
2017,05,23,16,35,17.10
2017,05,23,16,36,17.10
2017,05,23,16,37,17.10
2017,05,23,16,38,17.20
2017,05,23,16,39,17.10
2017,05,23,16,40,16.90
2017,05,23,16,41,16.70
2017,05,23,16,42,16.60
2017,05,23,16,43,16.60
2017,05,23,16,44,16.50
2017,05,23,16,45,16.40
2017,05,23,16,46,16.20
2017,05,23,16,47,16.00
2017,05,23,16,48,15.80
2017,05,23,16,49,15.70
2017,05,23,16,50,15.60
2017,05,23,16,51,15.60
2017,05,23,16,52,15.50
2017,05,23,16,53,15.50
2017,05,23,16,54,15.40
2017,05,23,16,55,15.30
2017,05,23,16,56,15.30
2017,05,23,16,57,15.30
2017,05,23,16,58,15.30
2017,05,23,16,59,15.30
2017,05,23,17,00,15.20
2017,05,23,17,01,15.20
2017,05,23,17,02,15.20
2017,05,23,17,03,15.20
2017,05,23,17,04,15.10
2017,05,23,17,05,15.00
2017,05,23,17,06,14.90
2017,05,23,17,07,14.90
2017,05,23,17,08,14.90
2017,05,23,17,09,14.80
2017,05,23,17,10,14.80
2017,05,23,17,11,14.70
2017,05,23,17,12,14.70
2017,05,23,17,13,14.70
2017,05,23,17,14,14.70
2017,05,23,17,15,14.60
2017,05,23,17,16,14.60
2017,05,23,17,17,14.60
2017,05,23,17,18,14.60
2017,05,23,17,19,14.60